Regional Weather Roundup
Issued by NWS

Home | Current Version | Previous Version | Graphics & Text | Print | Product List | Glossary On
Versions: 1 2 3 4 5 6 7 8 9 10 11 12 13 14 15 16 17 18 19 20 21 22 23 24 25 26 27 28 29 30 31 32 33 34 35 36 37 38 39 40 41 42 43 44 45 46 47 48 49 50
000
ASUS43 KBIS 221731
RWRND
NORTH DAKOTA REGIONAL WEATHER ROUNDUP
NATIONAL WEATHER SERVICE EASTERN NORTH DAKOTA/GRAND FORKS ND
1200 PM CDT TUE MAY 22 2018

  NOTE: "FAIR" INDICATES FEW OR NO CLOUDS BELOW 12,000 FEET WITH NO
  SIGNIFICANT WEATHER AND/OR OBSTRUCTIONS TO VISIBILITY.

NDZ001>003-009>011-017-221800-
...NORTHWEST NORTH DAKOTA...

CITY           SKY/WX    TMP DP  RH WIND       PRES   REMARKS
WILLISTON      FAIR      70  54  56 SW9       29.93S
MINOT          FAIR      79  48  33 S8        29.92F
MINOT AFB      FAIR      80  48  32 S10       29.90S
$$

NDZ018>021-031>035-040>046-221800-
...SOUTHWEST NORTH DAKOTA...

CITY           SKY/WX    TMP DP  RH WIND       PRES   REMARKS
BISMARCK       FAIR      76  54  46 S7        29.96S
DICKINSON      FAIR      71  50  47 SE8       29.95F
GARRISON         N/A     74  49  41 S8        29.94F
HETTINGER      FAIR      75  55  49 VRB6      29.97F
$$

NDZ004>008-012>016-024-026-027-054-221800-
...NORTHEAST NORTH DAKOTA...

CITY           SKY/WX    TMP DP  RH WIND       PRES   REMARKS
GRAND FORKS    FAIR      73  58  59 SW10G23   29.99R
GRAND FORKS AF FAIR      74  58  58 S9        29.99S
DEVILS LAKE    FAIR      73  56  54 SE9       29.98S
$$

NDZ022-023-025-028>030-036>039-047>053-221800-
...SOUTHEAST NORTH DAKOTA...

CITY           SKY/WX    TMP DP  RH WIND       PRES   REMARKS
JAMESTOWN      FAIR      75  57  53 S12       29.97F
FARGO          FAIR      68  58  70 SE9       30.01F
WAHPETON       FAIR      72  54  53 SE6       30.01F
$$




USA.gov is the U.S. government's official web portal to all federal, state and local government web resources and services.